User: anonymous   Login
Location: Salamanca
(40.9670°N, 5.6500°W)
Time: 23:48:00
(UTC+02:00)
Language:

Cosmos 1633 Rocket - Orbit

View from above orbital plane
View from above orbital plane
View from above satellite
View from above satellite

Ground track
Ground track

The orbit data is extracted from the following two-line orbital elements,

1 15593U 85020B   15208.56935810  .00000155  00000-0  15643-4 0  9995
2 15593 082.5374 188.8314 0012350 153.5867 353.3452 14.84079152641932
Epoch (UTC): 27 July 2015 13:39:52
Eccentricity: 0.0012350
inclination: 82.5374°
perigee height: 608 km
apogee height: 625 km
right ascension of ascending node: 188.8314°
argument of perigee: 153.5867°
revolutions per day: 14.84079152
mean anomaly at epoch: 353.3452°
orbit number at epoch: 64193

The dashed part of the orbit path shows where the satellite is in the earth's shadow,  

DLR